[[{"header":{"parameterUnit":"m.s-1","parameterCategory":1,"la1":30.2991,"la2":30.254,"lo1":-89.0895,"lo2":-89.0444,"dy":0.0017,"dx":0.0017,"nx":28,"ny":28,"refTime":"2025-06-03T21:00:00:Z","depth":0,"parameterNumber":2,"parameterNumberName":"U-component_of_WINDS"},"data":[0,0,0,0,0,0,0,0,0,0,0,0,0,0,0,0,0,0,0,0,0,0,0,0,0,0,0,0,0,0,0,0,0,0,0,0,0,0,0,0,0,0,0,0,0,0,0,0,0,0,0,0,0,0,0,0,0,0,0.5965,0.5967,0,0.6096,0.6098,0.6099,0.6171,0.6171,0.6171,0.6171,0.6307,0.631,0.6314,0,0,0,0,0,0,0,0,0,0,0,0,0,0.5778,0.5781,0.5965,0.5967,0.5968,0.6096,0.6098,0.61,0.6171,0.6171,0.6171,0.6171,0.6306,0.631,0.6314,0,0,0,0,0,0,0,0,0,0,0,0,0,0.5879,0.5782,0.5965,0.6019,0.6025,0.6096,0.6098,0.61,0.6171,0.6171,0.6171,0.6171,0.6305,0.631,0.6315,0.6341,0,0,0.633,0.6333,0,0,0,0,0,0,0,0,0.5873,0.5886,0.6009,0.6015,0.6023,0.6117,0.6082,0.6181,0.6171,0.6115,0.6171,0.6171,0.6244,0.6254,0.6278,0.6348,0.6354,0.6331,0.6334,0.6336,0.6338,0,0,0,0,0,0,0,0.5866,0.5881,0.6017,0.6011,0.6019,0.6037,0.6052,0.6101,0.6177,0.612,0.6126,0.614,0.6247,0.6273,0.6282,0.6356,0.6331,0.6335,0.6339,0.6341,0.6454,0.6454,0,0,0,0,0,0,0.585,0.5874,0.6013,0.6021,0.5947,0.6041,0.6057,0.6087,0.6176,0.619,0.614,0.6143,0.6264,0.6276,0.6287,0.6324,0.6336,0.6341,0.6344,0.6454,0.6454,0.6454,0,0,0,0,0,0,0.5846,0.5862,0.6008,0.5949,0.5969,0.6044,0.6076,0.6089,0.6115,0.6191,0.6205,0.6152,0.6265,0.628,0.6327,0.6329,0.6343,0.6348,0.6454,0.6454,0.6454,0.6398,0,0,0,0,0,0,0.584,0.586,0.587,0.5949,0.5972,0.6045,0.6076,0.6091,0.6123,0.6129,0.6206,0.6219,0.6266,0.6319,0.6332,0.6337,0.6352,0.6454,0.6454,0.6454,0.64,0.6395,0.6392,0,0,0,0,0,0.5833,0.585,0.587,0.5887,0.5986,0.6045,0.6058,0.6111,0.6123,0.6134,0.6184,0.6217,0.6327,0.6323,0.6339,0.6345,0.6454,0.6454,0.6454,0.6401,0.6396,0.6392,0,0,0,0,0,0,0.577,0.5861,0.5885,0.5927,0.5978,0.6057,0.6073,0.6104,0.6153,0.6156,0.6221,0.6238,0.6279,0.6317,0.6311,0.6376,0.6394,0.6397,0.6349,0.6345,0.6341,0.6331,0.6357,0,0,0,0,0,0.576,0.58,0.5878,0.5908,0.5932,0.5997,0.6025,0.6062,0.6117,0.6139,0.6191,0.6244,0.6291,0.632,0.6367,0.6406,0.6424,0.6418,0.6414,0.641,0.6412,0.6435,0.6433,0.6453,0.6453,0.6453,0,0,0.5742,0.5797,0.5818,0.5896,0.594,0.5979,0.6015,0.6056,0.6086,0.6145,0.6193,0.6233,0.6297,0.6339,0.6361,0.6372,0.641,0.641,0.6407,0.641,0.6434,0.6432,0.6431,0.6453,0.6453,0.6453,0,0,0.5729,0.5774,0.5804,0.5846,0.5912,0.5956,0.5963,0.6037,0.6066,0.6115,0.616,0.6198,0.6277,0.632,0.6352,0.6355,0.6387,0.6369,0.6349,0.637,0.6369,0.6368,0.6368,0.6368,0.637,0.637,0.637,0,0.5697,0.5759,0.5815,0.5853,0.5886,0.5941,0.5972,0.6011,0.6088,0.611,0.6122,0.6222,0.6268,0.6322,0.6322,0.6347,0.6357,0.636,0.6364,0.6364,0.6364,0.6365,0.6365,0.6367,0.6367,0.6368,0.6368,0,0.5717,0.5759,0.5775,0.5848,0.5883,0.5917,0.5979,0.6008,0.6041,0.6084,0.6133,0.6191,0.625,0.6266,0.63,0.6325,0.6329,0.6352,0.6372,0.6358,0.636,0.6361,0.6363,0.6364,0.6365,0.6366,0,0,0.5666,0.577,0.5775,0.5809,0.5885,0.5918,0.5955,0.6013,0.6036,0.6088,0.6121,0.6186,0.6207,0.6244,0.6283,0.6302,0.63,0.6322,0.6325,0.6315,0.633,0.6312,0.6312,0.6322,0.6322,0.6322,0.6325,0,0.5663,0.5731,0.5783,0.5831,0.5871,0.5924,0.5956,0.6006,0.6047,0.6087,0.6133,0.6178,0.6203,0.6225,0.6246,0.6295,0.6303,0.6296,0.6352,0.6354,0.6334,0.6313,0.6295,0.6294,0.6326,0.6326,0.6326,0,0.5668,0.5717,0.5769,0.5842,0.586,0.5888,0.5945,0.5982,0.6041,0.607,0.611,0.615,0.6192,0.6208,0.6266,0.626,0.6286,0.6314,0.6315,0.6322,0.6338,0.6319,0.6295,0.6294,0.6329,0.6328,0.6328,0,0.5625,0.5705,0.5746,0.5773,0.5859,0.5877,0.5913,0.5972,0.6004,0.6054,0.6075,0.613,0.6159,0.6201,0.6255,0.6262,0.6307,0.6328,0.6332,0.6331,0.6339,0.6337,0.6318,0.6357,0.6357,0.6357,0.6357,0,0.5615,0.5645,0.5728,0.5753,0.5788,0.5848,0.5881,0.5922,0.5974,0.6008,0.6058,0.6089,0.6159,0.6199,0.6242,0.6283,0.6297,0.6321,0.6332,0.6316,0.6313,0.6333,0.6335,0.6357,0.6357,0.6357,0.6357,0,0.5572,0.5629,0.5678,0.5755,0.5775,0.5797,0.5863,0.589,0.5934,0.5977,0.599,0.606,0.6109,0.6167,0.6236,0.6265,0.6302,0.6319,0.6282,0.6288,0.6288,0.6287,0.6281,0.6283,0.6321,0.632,0.632,0,0.5562,0.5586,0.5666,0.5692,0.5727,0.5769,0.5802,0.5862,0.5894,0.5962,0.598,0.6034,0.608,0.6156,0.6213,0.6266,0.6284,0.6278,0.6292,0.6275,0.6283,0.628,0.6283,0.6274,0.6273,0.6272,0.6272,0,0.5537,0.5564,0.5609,0.5663,0.57,0.5746,0.5794,0.5813,0.5883,0.5916,0.5967,0.6003,0.6073,0.6125,0.6185,0.6224,0.6259,0.6267,0.6271,0.6254,0.6232,0.6243,0.6271,0.6267,0.6267,0.6268,0.6268,0.6268,0.551,0.5533,0.5593,0.5641,0.5684,0.5727,0.5756,0.5804,0.5847,0.5909,0.5942,0.5992,0.6051,0.6135,0.6172,0.6212,0.6225,0.623,0.6231,0.6231,0.6226,0.6226,0.6224,0.6224,0.6224,0.6224,0.6225,0,0.5487,0.5528,0.5572,0.5637,0.5675,0.5706,0.576,0.579,0.5833,0.5885,0.5929,0.5987,0.6038,0.6099,0.6154,0.6175,0.6192,0.6187,0.6186,0.6194,0.6213,0.6204,0.6172,0.6172,0.6172,0.6172,0.6172,0.6172,0.5479,0.5521,0.5555,0.5618,0.566,0.5709,0.5737,0.5778,0.5819,0.5882,0.5925,0.5964,0.6019,0.6079,0.6127,0.6144,0.6161,0.6151,0.6172,0.6188,0.6193,0.6197,0.6189,0.6154,0.6154,0.615,0.615,0.615]},{"header":{"parameterUnit":"m.s-1","parameterCategory":1,"la1":30.2991,"la2":30.254,"lo1":-89.0895,"lo2":-89.0444,"dy":0.0017,"dx":0.0017,"nx":28,"ny":28,"refTime":"2025-06-03T21:00:00:Z","depth":0,"parameterNumber":3,"parameterNumberName":"V-component_of_WINDS"},"data":[0,0,0,0,0,0,0,0,0,0,0,0,0,0,0,0,0,0,0,0,0,0,0,0,0,0,0,0,0,0,0,0,0,0,0,0,0,0,0,0,0,0,0,0,0,0,0,0,0,0,0,0,0,0,0,0,0,0,3.6119,3.6119,0,3.6074,3.6074,3.6073,3.6065,3.6066,3.6066,3.6066,3.6014,3.6012,3.6011,0,0,0,0,0,0,0,0,0,0,0,0,0,3.6193,3.6192,3.6119,3.6119,3.6118,3.6074,3.6074,3.6073,3.6065,3.6066,3.6066,3.6067,3.6015,3.6013,3.601,0,0,0,0,0,0,0,0,0,0,0,0,0,3.6156,3.6191,3.6119,3.6109,3.6108,3.6075,3.6074,3.6073,3.6065,3.6066,3.6066,3.6067,3.6015,3.6013,3.601,3.5982,0,0,3.6002,3.6001,0,0,0,0,0,0,0,0,3.6158,3.6153,3.6111,3.611,3.6108,3.6076,3.608,3.6042,3.6065,3.6081,3.6066,3.6067,3.6034,3.603,3.602,3.598,3.5977,3.6002,3.6,3.5999,3.5998,0,0,0,0,0,0,0,3.616,3.6155,3.6101,3.6111,3.6109,3.6105,3.61,3.6073,3.6054,3.608,3.6079,3.6074,3.6033,3.6022,3.6018,3.5977,3.6002,3.6,3.5998,3.5997,3.5911,3.591,0,0,0,0,0,0,3.6165,3.6157,3.6103,3.61,3.6135,3.6103,3.6098,3.6086,3.6055,3.6051,3.6074,3.6074,3.6027,3.6022,3.6017,3.5982,3.5999,3.5997,3.5995,3.5912,3.5911,3.591,0,0,0,0,0,0,3.6167,3.6161,3.6105,3.6128,3.6121,3.6101,3.6088,3.6084,3.6074,3.605,3.6046,3.6067,3.6027,3.602,3.5991,3.598,3.5996,3.5993,3.5913,3.5912,3.5911,3.5912,0,0,0,0,0,0,3.6169,3.6161,3.6152,3.6128,3.612,3.6082,3.6087,3.6083,3.607,3.607,3.6043,3.6039,3.6027,3.5995,3.5989,3.5977,3.5991,3.5914,3.5912,3.5911,3.5913,3.5911,3.591,0,0,0,0,0,3.6172,3.6152,3.6151,3.6145,3.6108,3.6081,3.6076,3.6065,3.6069,3.6059,3.6044,3.6039,3.5982,3.5992,3.5985,3.5972,3.5914,3.5913,3.5911,3.5914,3.5912,3.591,0,0,0,0,0,0,3.6173,3.6149,3.6148,3.612,3.6103,3.608,3.6066,3.6063,3.6042,3.6042,3.6027,3.6021,3.5993,3.5979,3.5991,3.5943,3.5948,3.5945,3.5953,3.5951,3.5949,3.5953,3.5989,0,0,0,0,0,3.617,3.6153,3.6132,3.611,3.6102,3.6085,3.6073,3.6066,3.6047,3.6039,3.6022,3.6001,3.5979,3.5964,3.5942,3.5911,3.5905,3.5898,3.5897,3.5896,3.5893,3.5875,3.5872,3.5905,3.5905,3.5905,0,0,3.6164,3.6149,3.6138,3.611,3.6096,3.6076,3.6079,3.6058,3.6043,3.6035,3.6007,3.5994,3.597,3.594,3.5926,3.5928,3.5882,3.5894,3.5893,3.5891,3.5873,3.587,3.5868,3.5904,3.5904,3.5904,0,0,3.6142,3.613,3.611,3.6096,3.6076,3.6065,3.6061,3.6038,3.603,3.6002,3.5996,3.5976,3.5938,3.5921,3.5908,3.5881,3.5877,3.5874,3.5866,3.5849,3.5846,3.5844,3.5834,3.5831,3.5872,3.5872,3.5872,0,3.6137,3.6109,3.61,3.608,3.6067,3.6062,3.6041,3.6027,3.5999,3.599,3.5993,3.5945,3.5929,3.5895,3.5889,3.5878,3.5871,3.5877,3.5848,3.5845,3.5843,3.5833,3.583,3.5872,3.5872,3.5872,3.5872,0,3.6103,3.6083,3.607,3.6046,3.6031,3.6011,3.5997,3.5984,3.5978,3.5967,3.5938,3.5919,3.5893,3.5884,3.5877,3.5849,3.5851,3.5851,3.5856,3.584,3.5831,3.5827,3.5872,3.5872,3.5872,3.5872,0,0,3.6079,3.6052,3.6047,3.6037,3.6014,3.5998,3.5976,3.5953,3.5942,3.5923,3.5904,3.5872,3.5873,3.5857,3.5849,3.5834,3.5814,3.5836,3.5835,3.5832,3.5781,3.5781,3.5777,3.5811,3.581,3.581,3.5783,0,3.6055,3.602,3.6011,3.598,3.5962,3.5957,3.5938,3.5921,3.591,3.5892,3.5878,3.5856,3.5859,3.585,3.5835,3.582,3.5804,3.5822,3.5792,3.5791,3.5798,3.5773,3.5772,3.5748,3.578,3.5779,3.5779,0,3.6022,3.6005,3.5973,3.5953,3.5945,3.5929,3.5907,3.589,3.587,3.5863,3.5847,3.584,3.5816,3.5824,3.579,3.5802,3.579,3.578,3.5779,3.5775,3.5783,3.5768,3.574,3.5736,3.5773,3.5773,3.5774,0,3.6008,3.5977,3.5954,3.5945,3.5921,3.591,3.5899,3.588,3.5867,3.5848,3.5839,3.5816,3.5803,3.5785,3.5771,3.5778,3.5738,3.5744,3.5731,3.5731,3.5722,3.5723,3.5692,3.5715,3.5715,3.5715,3.5715,0,3.5982,3.5962,3.5948,3.5933,3.5911,3.5901,3.5878,3.5867,3.585,3.5833,3.5826,3.5809,3.5792,3.5773,3.5762,3.5735,3.5729,3.5722,3.5719,3.5723,3.5723,3.5714,3.5715,3.5714,3.5714,3.5714,3.5714,0,3.5962,3.5952,3.5926,3.5907,3.5902,3.5886,3.5868,3.5853,3.5843,3.582,3.5814,3.5797,3.5773,3.5759,3.5728,3.5721,3.5692,3.5689,3.5699,3.5698,3.5685,3.5686,3.5646,3.564,3.5667,3.5667,3.5667,0,3.5946,3.5931,3.5911,3.59,3.589,3.5871,3.5859,3.5848,3.5834,3.5812,3.5799,3.5776,3.5757,3.5719,3.5702,3.5679,3.5676,3.5663,3.5672,3.5676,3.5675,3.5676,3.5675,3.5662,3.5662,3.5661,3.5661,0,3.5918,3.5914,3.5897,3.5878,3.5864,3.5848,3.5832,3.5823,3.5809,3.5794,3.5772,3.5757,3.5727,3.5704,3.5679,3.5666,3.5661,3.5659,3.5654,3.5657,3.5663,3.566,3.5695,3.566,3.566,3.566,3.566,3.566,3.5899,3.5886,3.587,3.5852,3.5839,3.5825,3.581,3.5799,3.578,3.5757,3.5751,3.5727,3.5707,3.5674,3.5661,3.5641,3.5642,3.5636,3.5634,3.5632,3.5632,3.5667,3.5636,3.5636,3.5636,3.5636,3.5636,0,3.5871,3.5861,3.5844,3.5823,3.5808,3.5808,3.579,3.5777,3.5757,3.574,3.5722,3.5696,3.5673,3.5656,3.5632,3.5619,3.5616,3.5613,3.5614,3.5611,3.5632,3.5638,3.5616,3.5616,3.5616,3.5616,3.5616,3.5616,3.5854,3.5832,3.5826,3.5797,3.5787,3.5765,3.5755,3.5742,3.5728,3.57,3.5683,3.5672,3.5654,3.563,3.5609,3.5604,3.5595,3.5593,3.5587,3.5607,3.5609,3.5611,3.5617,3.5591,3.5591,3.5567,3.5567,3.5567]}]]